Skip Page Navigation
NASA JPL Caltech
NASA Logo - Jet Propulsion Laboratory + View the NASA Portal
+ Near-Earth Object (NEO) Program
Search JPL
JPL Home Earth Solar System Stars & Galaxies Technology
JPL Solar System Dynamics
BODIES ORBITS EPHEMERIDES TOOLS PHYSICAL DATA DISCOVERY FAQ SITE MAP
JPL Small-Body Database Browser
Search: [ help ]  
10586 Jansteen (1996 KY4)
Classification: Main-belt Asteroid          SPK-ID: 2010586
Ephemeris | Orbit Diagram | Orbital Elements | Physical Parameters | Discovery Circumstances ]

[ show orbit diagram ]
Orbital Elements at Epoch 2456400.5 (2013-Apr-18.0) TDB
Reference: JPL 1 (heliocentric ecliptic J2000)
 Element Value Uncertainty (1-sigma)   Units 
e .2601870070630963 7.6648e-08  
a 2.340130034031465 1.36e-08 AU
q 1.731258604338357 1.8031e-07 AU
i 3.79142618109132 5.8641e-06 deg
node 81.54562724264838 0.0001182 deg
peri 279.5264976958664 0.00011866 deg
M 157.219162890965 1.1315e-05 deg
tp 2455829.466757280070
(2011-Sep-24.96675728)
3.983e-05 JED
period 1307.55032401326
3.58
1.1399e-05
3.121e-08
d
yr
n .2753240111593206 2.4001e-09 deg/d
Q 2.949001463724574 1.7139e-08 AU
  Orbit Determination Parameters
   # obs. used (total)      922  
   data-arc span      13738 days (37.61 yr)  
   first obs. used      1975-08-30  
   last obs. used      2013-04-10  
   planetary ephem.      DE405  
   SB-pert. ephem.      SB405-CPV-2  
   condition code      0  
   fit RMS      .54416  
   data source      ORB  
   producer      Otto Matic  
   solution date      2013-Apr-29 13:40:42  

Additional Information
 Earth MOID = .732907 AU 
 T_jup = 3.516 
[ show covariance matrix ]

Ephemeris | Orbit Diagram | Orbital Elements | Physical Parameters | Discovery Circumstances ]

Physical Parameter Table
Parameter Symbol Value Units Sigma Reference Notes
absolute magnitude H 14.1 mag n/a PDS3 (MPC 34459)  

10586 Jansteen           Discovered 1996 May 22 by E. W. Elst at the European Southern Observatory.
Jan Havickszoon Steen (1626-1679) was a genre painter during the Dutch Golden Age. He is well known for his sense of humor, psychological insight and the abundance of color in his paintings. The name was suggested by W. Fröger.
NOTE: some special characters may not display properly (any characters within {} are an attempt to place the proper accent above a character)
Reference: 20080819/MPCPages.arcLast Updated: 2008-08-25

Alternate Designations
 1996 KY4 = 1975 QQ = 1986 TN2 = 1986 VD9 
Ephemeris | Orbit Diagram | Orbital Elements | Physical Parameters | Discovery Circumstances ]
ABOUT SSD CREDITS/AWARDS PRIVACY/COPYRIGHT GLOSSARY LINKS
FirstGov 2013-Jun-19 01:23 UT
(server date/time)  
NASA Home Page
Site Manager:   Donald K. Yeomans
Webmaster  Alan B. Chamberlin